Location: Unspecified
(52.1605°N, 0.0000°E)
Time: 01:11:22
(UTC+00:00)

Cosmos 2298 Rocket - Visible Passes

Search period start: 04 April 2026 00:00
Search period end: 14 April 2026 00:00
Orbit: 773 x 781 km, 74.0° (Epoch: 29 March)

Date Brightness Start Highest point End Pass type
(mag) Time Alt. Az. Time Alt. Az. Time Alt. Az.
4 Apr 4.7 00:56:17 53° N 00:56:17 53° N 01:00:29 10° NNE visible
4 Apr 6.0 02:36:43 15° WNW 02:38:27 18° NW 02:42:00 10° N visible
4 Apr 6.5 22:41:50 11° ENE 22:41:50 11° ENE 22:42:07 10° ENE visible
5 Apr 4.8 00:22:16 48° NNE 00:22:16 48° NNE 00:26:04 10° NNE visible
5 Apr 5.7 02:02:41 22° WNW 02:03:39 23° NW 02:07:52 10° N visible
5 Apr 5.2 23:48:14 36° NE 23:48:14 36° NE 23:51:34 10° NNE visible
6 Apr 5.3 01:28:39 30° WNW 01:28:56 31° NW 01:33:39 10° NNE visible
6 Apr 5.5 23:14:10 27° ENE 23:14:10 27° ENE 23:16:57 10° NE visible
7 Apr 4.9 00:54:35 42° NW 00:54:35 42° NW 00:59:23 10° NNE visible
7 Apr 6.4 02:35:53 10° NW 02:38:06 12° NNW 02:40:20 10° N visible
7 Apr 5.9 22:40:05 19° ENE 22:40:05 19° ENE 22:42:11 10° NE visible
8 Apr 4.6 00:20:29 54° NNW 00:20:29 54° NNW 00:25:02 10° NNE visible
8 Apr 6.2 02:00:54 13° WNW 02:03:12 16° NW 02:06:26 10° N visible
8 Apr 6.2 22:05:57 14° ENE 22:05:57 14° ENE 22:07:07 10° NE visible
8 Apr 4.5 23:46:22 58° NNE 23:46:22 58° NNE 23:50:39 10° NNE visible
9 Apr 5.9 01:26:47 18° WNW 01:28:22 21° NW 01:32:20 10° N visible
9 Apr 4.7 23:12:13 48° NE 23:12:13 48° NE 23:16:11 10° NNE visible
10 Apr 5.5 00:52:37 26° WNW 00:53:37 27° NW 00:58:09 10° N visible
10 Apr 5.0 22:38:00 36° ENE 22:38:00 36° ENE 22:41:37 10° NE visible
11 Apr 5.1 00:18:25 36° WNW 00:18:57 37° NW 00:23:54 10° NNE visible
11 Apr 6.6 02:01:13 10° NW 02:02:53 11° NNW 02:04:34 10° N visible
11 Apr 5.3 22:03:46 26° ENE 22:03:46 26° ENE 22:06:55 10° NE visible
11 Apr 4.6 23:44:11 52° WNW 23:44:22 52° WNW 23:49:35 10° NNE visible
12 Apr 6.5 01:25:05 10° WNW 01:27:57 14° NW 01:30:49 10° N visible
12 Apr 5.7 21:29:28 19° ENE 21:29:28 19° ENE 21:31:59 10° NE visible
12 Apr 4.1 23:09:53 75° WNW 23:09:53 75° WNW 23:15:13 10° NNE visible
13 Apr 6.3 00:50:17 13° WNW 00:53:05 19° NW 00:56:47 10° N visible
13 Apr 6.0 20:55:08 13° E 20:55:08 13° E 20:56:34 10° ENE visible
13 Apr 3.9 22:35:31 76° E 22:35:31 76° E 22:40:46 10° NNE visible
